Location: Newark
(52.1752°N, 10.4140°W)
Time: 23:49:55
(UTC+00:00)

N. Korean satellite - Pass Details

Date: 21 November 2019
Orbit: 455 x 507 km, 97.2° (Epoch: 14 December)

Event Time Altitude Azimuth Distance (km) Brightness Sun altitude
Rises 05:15:43 0° 33° (NNE) 2,619 10.7 -26.5°
Reaches altitude 10° 05:20:05 10° 82° (E) 1,714 10.3 -25.8°
Maximum altitude 05:20:19 10° 85° (E) 1,710 10.4 -25.8°
Drops below altitude 10° 05:20:33 10° 89° (E) 1,712 10.4 -25.7°
Sets 05:24:49 0° 138° (SE) 2,571 10.8 -25.1°
